This is the latest recevied weather packets stored in our database for station/object KJ7HSW. If no packets are shown the sender has not sent any weather packets the latest 10 day(s).
| Time | Temp. | Humidity | Pressure | Rain* | Wind** | Luminosity | Snow |
|---|---|---|---|---|---|---|---|
| 1777326085 | 15° C | 60% | 1015.6 hPa | 0 mm | - | 187 W/m² | - |
| 1777325783 | 15° C | 58% | 1015.7 hPa | 0 mm | - | 207 W/m² | - |
| 1777325481 | 15° C | 58% | 1015.8 hPa | 0 mm | - | 236 W/m² | - |
| 1777325178 | 15° C | 61% | 1015.6 hPa | 0 mm | - | 234 W/m² | - |
| 1777324875 | 15° C | 59% | 1015.6 hPa | 0 mm | - | 251 W/m² | - |
| 1777324573 | 15° C | 61% | 1015.5 hPa | 0 mm | - | 260 W/m² | - |
| 1777324269 | 14.44° C | 60% | 1015.6 hPa | 0 mm | - | 276 W/m² | - |
| 1777323967 | 14.44° C | 60% | 1015.6 hPa | 0 mm | - | 284 W/m² | - |
| 1777323665 | 14.44° C | 59% | 1015.6 hPa | 0 mm | - | 262 W/m² | - |
| 1777323361 | 15° C | 59% | 1015.6 hPa | 0 mm | - | 212 W/m² | - |
| 1777323060 | 14.44° C | 62% | 1015.4 hPa | 0 mm | - | 257 W/m² | - |
| 1777322757 | 14.44° C | 60% | 1015.6 hPa | 0 mm | - | 328 W/m² | - |
| 1777322455 | 15° C | 59% | 1015.5 hPa | 0 mm | - | 318 W/m² | - |
| 1777322151 | 15° C | 58% | 1015.6 hPa | 0 mm | - | 738 W/m² | - |
| 1777321848 | 15.56° C | 60% | 1015.8 hPa | 0 mm | - | 310 W/m² | - |
| 1777321545 | 15° C | 58% | 1015.6 hPa | 0 mm | - | 377 W/m² | - |
| 1777321242 | 15° C | 60% | 1015.8 hPa | 0 mm | - | 341 W/m² | - |
| 1777320939 | 14.44° C | 61% | 1015.6 hPa | 0 mm | - | 308 W/m² | - |
| 1777320637 | 13.89° C | 62% | 1015.6 hPa | 0 mm | - | 401 W/m² | - |
| 1777320334 | 13.89° C | 63% | 1015.7 hPa | 0 mm | - | 497 W/m² | - |
| 1777320030 | 13.89° C | 63% | 1015.6 hPa | 0 mm | - | 314 W/m² | - |
| 1777319728 | 13.89° C | 63% | 1015.8 hPa | 0 mm | - | 244 W/m² | - |
| 1777319425 | 13.89° C | 64% | 1015.8 hPa | 0 mm | - | 285 W/m² | - |
| 1777319121 | 13.89° C | 62% | 1015.8 hPa | 0 mm | - | 535 W/m² | - |
| 1777318819 | 14.44° C | 62% | 1015.9 hPa | 0 mm | - | 377 W/m² | - |
* Rain latest hour (hover to see other rain measurements)
** Current wind speed in m/s (hover to see current wind gust speed)